Theta_e
317 317 320 319 318 317 317 318 318 319 318 318 320 319 319 320 321 318 314 314 313 316 316 317 319 320 321 322 321 322 321 321 320 321 323 323 324 324 324 323 325 326 327 328 327 333 335 330 330 332 332 335 334 333
319 319 319 319 319 318 318 318 318 319 319 319 319 318 319 319 321 320 315 311 311 312 314 315 315 317 317 320 321 320 321 320 321 320 320 320 323 320 320 324 320 324 320 322 324 326 326 332 333 331 331 331 331 331
318 320 319 319 319 318 318 318 318 319 319 319 319 318 319 319 320 319 315 312 315 315 316 317 321 320 321 318 318 319 320 321 321 322 321 319 322 318 322 320 323 320 321 320 320 323 329 328 326 327 327 328 330 329
318 320 319 317 317 317 317 318 318 318 318 318 319 318 319 319 319 317 313 314 316 316 314 317 320 320 319 318 322 321 320 320 321 321 320 317 321 320 318 319 319 320 320 320 320 321 324 327 324 324 325 325 324 324
318 318 317 316 316 316 316 317 317 317 317 318 318 318 318 319 318 315 312 315 317 316 315 317 315 317 317 318 320 322 322 322 321 321 317 317 319 318 317 316 317 320 319 320 321 322 323 324 323 323 324 324 323 322
315 315 315 315 315 315 314 314 314 315 316 318 318 317 318 318 317 315 316 316 317 316 315 310 313 314 316 318 320 321 322 321 321 322 320 321 322 321 319 318 319 322 323 322 322 323 323 324 324 324 323 321 322 322
313 313 313 313 313 312 311 311 312 314 317 318 318 316 317 318 317 315 313 318 317 314 314 311 311 315 319 319 321 320 320 321 322 323 322 321 322 321 317 321 320 322 322 322 322 323 324 324 323 322 322 323 323 323
312 312 311 311 311 310 309 309 313 313 317 318 317 316 317 317 316 312 313 313 310 312 311 310 311 316 319 321 320 321 321 322 323 323 321 320 321 321 320 320 322 322 324 324 324 324 323 323 323 323 323 324 324 324
310 310 309 309 309 308 307 310 313 314 317 317 316 316 316 313 314 318 315 314 315 314 315 313 312 315 317 319 323 323 323 320 321 320 319 321 318 321 320 321 322 324 325 324 323 322 322 322 322 323 323 324 324 325
309 308 307 307 307 308 311 311 313 315 315 315 315 315 314 315 316 315 313 313 313 312 313 313 313 311 314 316 321 321 322 318 320 318 322 319 319 322 323 323 324 323 321 322 322 322 321 321 321 322 322 322 322 324
307 307 306 306 307 309 311 313 314 315 314 314 315 313 316 316 315 313 315 315 315 315 315 315 314 311 315 313 320 321 317 316 322 320 322 321 320 322 324 324 322 322 323 323 323 322 322 323 323 323 323 323 323 324
305 305 306 306 309 311 312 314 315 315 314 314 313 314 314 314 315 315 314 316 315 315 317 317 318 317 317 321 320 319 319 317 322 319 324 321 317 325 325 325 324 323 324 323 322 322 324 323 324 324 323 323 324 324
304 305 305 306 309 310 313 314 314 315 314 312 313 312 313 314 314 316 315 314 315 318 319 320 321 321 322 322 319 317 320 320 319 320 322 320 324 325 325 325 324 323 323 321 322 322 324 326 326 326 326 327 327 327
303 304 305 306 309 311 313 314 314 313 312 310 311 309 314 314 312 312 312 312 317 320 321 321 321 320 322 321 321 323 318 318 322 325 324 320 325 324 323 323 324 322 321 321 322 321 322 323 326 326 325 328 329 329
303 304 305 308 310 311 313 313 313 312 311 311 312 312 312 313 313 314 314 314 315 316 321 320 320 319 320 323 322 322 324 325 323 324 321 324 325 324 323 323 323 321 320 319 322 321 321 323 325 326 324 328 328 327
303 304 305 309 311 312 312 312 311 311 309 311 312 312 313 312 313 314 315 316 317 317 318 319 318 319 321 322 324 324 324 324 323 323 323 323 324 324 324 324 322 320 319 323 322 323 324 324 327 327 325 328 328 327
304 306 308 311 312 312 312 311 310 309 309 310 311 311 313 312 312 313 315 316 317 318 318 318 320 320 317 321 324 324 324 322 322 322 323 324 324 324 324 324 324 323 324 323 323 325 325 325 327 327 328 327 327 328
306 308 310 311 311 310 309 310 310 308 309 310 310 312 312 313 314 313 314 315 315 316 318 317 318 319 320 322 322 322 321 320 322 322 323 324 324 325 324 325 325 324 324 321 322 325 325 326 326 327 327 326 328 328
308 309 310 311 310 309 309 309 308 310 310 310 311 311 311 312 312 313 314 314 314 314 316 318 318 316 316 318 320 320 320 321 321 322 323 323 323 324 324 324 324 324 322 324 324 324 324 325 325 327 328 326 327 326
309 309 310 310 310 310 308 308 309 309 311 312 312 312 312 312 313 313 313 314 314 315 317 316 315 317 319 320 320 319 319 321 321 321 323 322 324 324 323 323 323 322 322 321 323 323 323 325 326 326 326 329 329 326
309 307 308 309 310 311 311 310 309 310 311 311 312 313 314 314 314 314 314 314 314 314 315 316 316 316 316 316 316 318 318 320 322 324 324 324 323 322 321 321 323 321 321 320 321 322 323 322 323 326 327 326 324 324
306 306 308 309 310 310 310 312 312 313 313 313 312 312 312 313 316 316 316 315 315 315 314 314 315 315 316 317 316 318 320 322 322 323 324 322 322 322 321 321 323 321 320 319 320 321 321 323 323 324 325 326 326 327
306 306 308 309 310 310 311 311 312 312 311 313 314 315 315 317 318 319 319 318 318 317 317 316 315 316 316 317 318 318 320 321 323 323 322 322 323 323 323 322 323 321 320 319 319 320 319 320 322 323 324 324 324 325
307 308 309 309 309 308 310 311 311 313 314 316 316 319 319 320 319 319 316 318 321 322 321 319 318 318 319 320 321 321 323 323 323 322 321 321 322 323 323 323 322 321 320 320 319 319 318 319 319 320 322 322 322 322
309 309 311 310 310 310 312 313 313 315 317 317 319 319 319 320 318 319 319 321 322 322 322 322 321 323 321 321 321 323 323 323 322 320 320 320 321 321 320 320 320 319 318 318 319 319 319 320 320 319 318 318 317 316
305 308 310 310 310 312 314 316 316 317 317 318 317 316 319 320 321 321 320 320 320 323 323 322 322 322 322 322 321 320 322 321 322 321 318 318 319 319 320 320 319 319 317 317 318 318 318 318 318 318 318 318 318 318
305 309 310 311 312 313 315 316 316 315 318 317 315 320 318 320 321 318 319 322 323 323 322 320 321 322 321 322 321 319 321 323 322 321 320 317 317 316 317 318 319 319 319 316 317 317 317 317 316 316 316 316 316 316
310 312 313 314 313 314 316 316 314 314 315 317 318 320 320 321 320 320 321 322 322 321 320 320 320 321 321 318 317 316 317 319 318 318 318 318 318 318 317 317 317 317 317 316 316 316 315 315 315 315 315 315 315 316
312 314 314 314 315 316 317 315 315 316 318 319 317 317 319 321 322 321 321 321 320 320 320 320 320 320 320 319 317 318 318 317 317 316 317 317 318 318 317 317 317 317 317 317 316 316 315 315 315 315 315 314 314 313
313 314 315 316 315 315 316 317 317 318 319 319 318 319 320 321 322 323 322 322 321 321 321 320 321 320 320 319 318 318 319 319 319 318 316 315 315 316 316 318 318 317 317 315 315 315 316 316 315 315 314 314 314 314
315 315 316 317 316 317 317 317 317 318 320 320 321 321 322 320 321 322 321 321 320 320 320 320 320 320 320 320 319 319 319 319 319 319 320 319 317 318 318 317 317 317 317 318 317 316 316 316 316 315 313 314 315 315
316 317 317 317 319 319 318 319 319 319 322 321 322 320 320 320 320 321 321 321 321 321 321 321 320 320 320 320 319 320 319 319 319 319 319 319 319 319 317 318 318 318 318 318 318 318 316 316 316 316 315 314 314 315
317 318 318 318 320 321 321 318 318 320 322 321 321 320 320 321 322 321 320 321 320 321 321 320 320 320 320 320 320 320 320 319 319 320 320 320 320 319 319 319 319 317 318 318 318 317 316 316 316 316 316 316 315 314
Wind_Speed
22 20 19 17 15 14 13 13 14 15 15 14 14 15 16 15 12 10 7 10 9 5 19 8 3 5 8 5 3 4 5 3 4 4 2 2 2 2 2 3 2 2 1 2 1 1 2 11 4 5 3 4 4 5
23 20 18 18 17 16 15 14 14 14 14 15 14 15 14 13 12 11 8 11 12 11 15 24 29 23 24 23 6 2 2 2 2 3 1 0 2 2 2 3 4 2 4 2 4 4 4 5 3 2 4 7 9 11
23 21 19 18 17 17 16 15 15 15 15 15 14 14 12 12 12 11 12 13 12 8 17 8 3 5 7 15 23 9 6 6 1 1 3 1 2 3 1 4 1 4 2 0 4 2 3 7 8 7 9 13 14 15
21 20 20 18 17 17 17 16 16 16 15 14 13 12 10 12 11 11 11 10 8 6 5 6 6 13 9 8 11 17 16 6 3 3 3 2 2 5 3 3 4 5 2 2 3 6 9 13 11 12 12 11 14 19
19 19 19 19 18 18 18 18 17 17 15 11 10 11 10 10 9 9 9 5 5 5 5 15 25 5 9 11 14 15 19 23 15 2 2 3 4 1 2 1 3 6 6 4 5 6 9 17 21 17 14 16 19 22
18 18 18 19 19 19 17 19 18 15 13 10 9 10 8 8 8 7 3 4 4 6 6 4 11 11 3 6 14 16 16 15 12 4 5 4 6 3 2 3 6 9 10 13 12 22 21 22 20 16 16 21 28 32
19 19 19 19 19 18 16 16 16 13 11 10 9 9 9 9 7 5 3 1 3 5 4 8 10 6 11 2 7 9 14 11 10 6 5 6 8 6 2 8 6 13 20 22 24 17 17 20 17 19 31 35 34 36
20 19 19 19 19 18 16 15 13 12 10 9 8 9 9 9 8 3 0 1 8 7 4 2 5 10 13 3 3 6 7 8 5 5 3 4 2 3 4 12 11 9 10 10 11 13 22 26 33 36 35 33 32 31
19 19 18 19 19 16 15 12 11 10 9 8 7 9 9 2 1 1 3 6 6 5 2 2 2 4 12 6 3 1 1 0 2 2 4 4 1 4 8 9 10 10 6 11 18 24 28 30 33 33 33 34 33 31
20 19 18 18 17 14 13 10 10 8 8 6 5 4 2 2 2 5 3 1 2 3 5 5 4 4 6 7 3 3 3 0 1 4 2 2 4 16 16 10 2 8 15 18 22 29 31 34 36 36 35 37 35 33
19 19 18 17 16 15 13 11 10 11 6 5 3 3 3 2 2 2 2 2 4 3 6 7 9 3 4 3 3 2 1 1 1 4 2 2 3 3 5 4 7 15 18 20 23 28 34 35 36 36 36 35 35 34
18 18 16 16 16 16 15 14 12 13 7 5 3 3 3 3 3 2 3 2 4 4 5 5 6 8 3 4 1 2 1 2 4 6 2 2 4 5 6 9 15 19 21 24 26 31 29 29 31 33 33 35 36 37
17 17 16 17 18 18 18 16 14 15 9 5 4 2 2 3 1 4 4 3 2 4 3 4 2 2 3 0 3 2 1 4 6 1 3 3 3 5 10 14 20 23 21 24 30 30 28 29 29 28 30 30 30 31
17 16 17 20 19 20 18 17 17 17 8 4 5 2 4 4 4 5 4 4 3 3 9 5 3 1 2 3 2 2 3 2 2 2 3 3 7 12 15 18 21 22 21 24 30 32 32 28 32 29 26 28 25 25
14 16 17 24 23 21 19 18 20 22 7 6 5 4 6 10 9 6 12 16 18 14 5 2 1 2 0 2 4 2 2 4 4 2 2 12 16 17 18 21 22 24 26 27 31 36 33 29 27 27 23 18 15 15
13 15 21 25 24 22 20 21 23 21 4 5 6 3 8 3 9 9 8 10 6 6 3 2 1 2 5 3 3 5 3 3 2 3 18 21 20 18 20 21 21 24 25 27 31 34 31 27 24 24 22 16 11 10
15 17 21 23 22 22 23 24 18 7 7 4 7 11 16 14 11 12 7 4 3 2 2 2 2 6 0 3 3 1 1 3 14 23 22 21 23 18 22 21 20 23 25 26 29 26 23 23 21 18 16 13 9 4
18 17 18 22 24 25 27 12 8 7 6 9 7 10 11 13 11 12 8 6 5 3 4 4 2 2 3 2 1 4 10 10 15 19 22 24 21 19 22 20 20 22 24 27 26 23 24 24 22 21 18 12 8 6
19 17 19 23 31 20 8 9 6 5 11 8 13 19 19 18 19 18 15 13 12 11 5 3 3 3 4 5 4 4 11 17 21 21 22 22 24 21 19 15 16 18 22 22 20 23 20 18 16 14 11 8 5 4
18 11 16 30 28 6 6 6 9 5 5 5 9 12 12 14 17 17 17 17 16 10 7 5 5 9 7 8 8 18 23 18 21 23 24 26 17 14 12 11 11 12 15 20 22 24 22 15 11 16 13 6 6 11
16 30 35 28 6 4 4 6 6 4 4 6 7 9 7 11 14 16 19 18 16 9 7 16 19 21 24 24 22 22 23 22 17 17 22 18 10 9 10 9 7 7 13 21 24 26 26 23 18 13 16 11 10 14
24 29 27 11 2 3 2 6 4 2 4 6 8 7 7 5 7 11 12 10 9 20 22 23 26 27 25 22 22 18 18 16 17 16 10 6 8 7 7 6 7 8 12 16 19 23 24 24 22 20 22 24 20 20
25 19 8 3 1 3 2 5 4 3 1 3 3 3 4 4 4 3 3 5 7 17 23 27 26 25 24 21 18 19 18 17 12 3 2 4 5 5 4 4 6 8 10 13 15 18 22 26 26 30 25 22 22 24
18 7 5 5 5 3 3 3 4 3 3 3 2 3 3 4 2 2 3 4 5 6 5 7 15 17 17 15 11 13 14 6 9 8 2 2 4 8 10 11 11 12 12 12 13 14 19 23 27 29 31 31 34 35
4 3 3 4 5 3 3 2 4 2 2 3 3 3 1 2 1 3 3 3 2 6 4 1 4 10 14 12 3 5 10 13 13 8 5 8 13 16 17 18 17 16 14 14 16 18 21 24 29 32 35 38 40 41
2 5 7 6 3 3 3 2 4 5 3 3 2 4 3 2 2 3 2 3 6 3 2 4 4 6 7 10 12 13 12 15 18 17 15 12 14 17 17 18 18 18 20 22 25 26 26 26 27 29 30 30 31 32
1 3 5 6 4 4 4 5 6 2 2 1 1 3 1 1 2 3 4 8 8 5 10 18 20 19 19 14 8 6 8 16 19 14 16 16 16 15 13 12 13 14 14 15 18 21 23 23 25 25 24 24 25 25
4 3 4 5 5 5 3 2 1 2 2 1 1 2 2 1 2 6 7 8 10 14 26 18 11 10 11 14 19 20 20 20 18 18 17 14 12 13 13 11 13 15 17 18 17 17 17 19 19 20 21 21 20 19
4 5 5 4 5 5 4 3 2 2 1 2 1 2 4 6 6 7 5 7 10 9 10 8 5 2 4 11 19 18 17 16 16 15 13 12 11 11 11 9 9 13 12 13 13 13 12 12 13 15 16 17 18 18
4 5 3 2 2 3 2 3 1 1 2 2 5 5 6 7 8 4 5 4 4 6 5 4 3 4 5 10 13 14 13 9 5 9 13 11 10 10 9 10 10 10 13 13 13 12 13 14 14 14 13 13 14 13
3 5 2 2 2 3 2 4 3 3 2 1 5 3 5 5 6 7 3 8 12 10 10 11 11 10 8 9 13 12 13 11 9 6 8 7 10 8 7 8 8 9 9 8 8 8 7 7 8 10 12 11 9 9
2 3 2 1 2 2 4 2 1 2 2 1 2 1 3 6 7 11 12 6 13 15 12 12 12 12 10 10 15 15 9 11 11 6 6 11 12 10 11 9 9 7 6 9 8 8 8 8 6 7 6 8 8 7
1 2 3 2 1 2 3 1 1 2 3 3 2 12 9 2 3 5 4 7 4 15 14 10 14 13 11 8 17 14 9 10 11 9 8 10 7 5 7 11 12 6 15 13 11 10 10 9 5 8 8 7 6 6
Wind_Direction
273 276 278 276 280 285 292 302 312 322 329 333 333 337 340 345 348 354 330 317 323 276 289 257 232 246 247 232 179 327 349 343 23 58 119 242 215 280 352 288 319 101 55 318 350 293 226 345 2 77 247 240 234 276
266 267 269 267 272 278 285 292 301 309 318 322 325 327 327 332 336 335 337 321 309 277 275 285 285 279 260 244 257 268 244 285 232 84 353 152 319 6 160 291 340 344 163 223 164 233 285 357 48 101 336 317 318 313
266 261 260 260 264 270 277 285 293 301 310 313 315 322 326 328 327 326 331 325 333 307 304 295 251 342 313 231 238 231 248 219 164 104 159 200 261 128 231 248 294 321 148 299 33 315 6 76 61 29 358 331 318 320
264 259 258 258 261 266 271 276 283 293 305 306 306 313 319 324 323 321 328 317 334 322 304 300 282 288 277 294 225 226 225 230 273 199 192 171 195 199 223 235 184 213 353 210 254 270 305 245 315 326 322 319 317 312
262 258 256 260 262 264 266 270 276 287 295 290 294 309 313 320 323 319 313 280 327 344 290 289 309 283 246 219 236 233 237 246 250 206 123 230 234 179 249 28 244 202 201 171 232 241 259 266 295 300 297 307 314 320
257 258 260 260 262 264 264 264 272 278 283 274 277 301 314 313 318 327 261 249 277 342 315 312 312 321 318 258 228 223 227 225 220 192 217 233 234 212 216 248 252 214 222 264 251 287 277 273 279 278 281 295 303 305
257 259 259 261 263 266 266 259 264 271 272 263 270 299 304 298 303 293 266 291 272 316 282 304 308 310 359 188 203 208 205 212 226 225 221 230 235 209 175 261 254 262 275 276 285 276 265 269 269 288 296 299 302 301
256 256 258 260 259 261 256 251 253 267 256 254 270 284 290 293 304 291 183 341 245 270 272 290 281 320 5 348 199 198 201 218 226 236 227 215 203 209 258 252 288 300 306 297 286 271 280 292 293 295 301 302 298 297
254 255 255 256 257 254 244 241 246 257 245 250 264 286 290 277 163 268 305 288 251 243 267 235 269 281 348 10 354 101 178 11 262 222 241 160 196 225 237 273 291 302 289 295 294 291 293 297 301 302 303 298 292 290
253 252 250 251 251 238 225 226 243 232 236 231 260 262 216 168 217 293 295 227 230 212 228 242 241 265 326 340 338 5 16 240 326 252 171 180 249 256 265 275 274 304 306 305 307 309 312 308 306 298 292 290 287 284
249 249 247 243 237 219 211 212 227 209 219 219 205 228 189 243 276 247 248 204 183 238 222 237 228 240 248 177 253 8 238 306 309 269 163 250 275 254 164 198 305 317 314 311 310 308 309 307 298 294 291 291 284 281
246 242 237 232 216 205 204 212 208 197 196 202 190 207 210 229 227 234 239 199 195 236 210 209 238 218 240 240 215 357 249 36 251 324 280 271 256 206 243 288 313 322 317 316 321 320 315 310 310 303 296 290 282 279
239 236 226 218 206 205 206 211 211 199 196 190 210 194 211 194 231 210 208 238 237 212 223 230 237 251 182 278 72 47 344 238 317 255 234 229 263 288 298 303 314 316 318 321 324 324 324 324 320 313 308 304 293 286
239 233 226 210 202 202 208 205 203 195 169 196 178 262 202 207 234 202 202 206 236 296 226 225 145 129 121 51 108 294 243 334 281 267 255 249 304 327 329 317 313 317 322 322 333 332 327 325 320 313 311 311 299 285
237 236 224 200 194 201 203 201 194 189 180 200 177 229 222 232 248 260 260 278 283 291 223 191 227 203 187 203 198 247 249 238 219 243 246 320 322 323 321 320 320 322 323 319 326 330 325 325 321 314 320 311 299 287
233 236 216 188 195 201 195 192 192 187 215 210 222 249 248 261 271 275 292 287 290 208 207 230 159 220 232 201 187 213 211 254 296 286 310 323 318 313 318 320 323 326 325 325 326 327 323 321 325 320 313 314 308 305
204 211 201 190 195 193 189 184 178 194 203 222 246 237 255 276 270 282 315 348 296 237 185 169 250 225 274 228 220 149 101 253 300 314 314 326 321 313 321 319 324 329 331 333 336 344 339 333 338 332 333 337 294 275
205 209 201 198 186 179 173 166 171 198 224 236 248 257 243 243 256 272 291 277 293 237 192 209 230 226 244 264 304 195 235 272 307 308 311 318 315 308 316 315 324 329 333 335 333 334 338 334 332 337 340 340 306 231
204 206 201 197 177 156 152 172 182 220 231 245 250 257 262 264 264 260 259 268 268 261 263 198 232 209 228 215 204 308 291 287 286 304 301 306 313 309 313 317 327 334 340 345 354 1 355 353 341 333 339 331 339 188
203 198 204 183 166 131 143 166 184 231 237 236 240 253 250 257 263 265 268 265 255 244 200 208 199 228 226 239 261 294 311 314 301 294 302 315 324 318 329 333 340 356 7 16 19 19 20 30 28 7 349 326 177 153
170 172 174 161 133 115 163 169 192 222 239 243 266 271 264 255 257 259 254 251 239 225 226 227 238 252 262 264 271 277 289 304 298 299 308 319 333 342 349 345 360 4 9 16 20 29 27 33 41 40 44 66 102 140
161 175 170 158 117 157 218 199 218 240 231 254 275 249 246 251 248 253 252 217 228 236 233 240 239 246 257 264 270 275 293 292 292 299 303 315 326 335 353 360 11 14 17 25 27 33 39 43 56 72 85 96 113 128
162 159 144 104 183 207 238 204 226 231 228 255 250 238 234 229 243 231 247 239 253 255 245 244 247 252 257 263 267 275 278 289 290 235 294 317 323 334 354 19 47 37 31 39 37 40 50 56 56 76 91 98 97 105
146 133 171 196 205 231 223 216 222 246 249 253 242 260 238 228 209 225 248 257 265 297 293 256 243 250 252 246 246 273 279 233 155 118 77 352 71 71 67 83 72 61 53 51 48 56 62 69 71 71 76 83 85 85
131 183 186 212 207 230 223 228 202 223 259 234 238 248 247 217 223 218 230 265 291 334 298 236 262 252 233 218 257 103 118 145 130 120 130 100 95 100 89 84 82 74 65 61 62 69 77 77 79 81 83 86 87 86
154 196 182 202 216 204 227 230 208 206 229 238 252 329 354 346 299 287 281 344 339 31 83 193 243 149 152 162 126 115 136 152 145 141 128 112 101 95 94 90 86 84 77 78 81 84 85 81 78 79 81 86 89 89
244 240 213 221 247 262 262 245 257 264 270 298 337 352 58 326 282 275 348 57 62 64 99 116 118 102 112 114 123 148 156 170 146 135 132 117 109 99 94 92 91 91 94 96 89 87 89 89 89 85 81 82 85 86
249 268 203 195 213 223 248 268 208 235 255 259 276 224 244 241 272 356 34 43 70 127 143 155 142 90 77 112 119 117 116 130 133 129 126 130 132 118 103 91 99 98 103 98 95 90 89 89 90 95 93 93 94 92
254 248 219 224 224 242 229 213 228 249 314 358 26 320 318 348 17 19 80 103 111 127 161 182 200 239 33 149 144 135 129 123 127 141 143 137 140 136 141 142 114 97 105 112 101 92 92 91 94 98 100 93 94 96
245 212 215 218 197 244 254 208 184 231 339 46 345 339 324 340 34 121 167 181 167 146 136 125 118 120 97 161 174 183 186 172 143 121 135 150 145 119 134 159 160 135 121 113 126 116 105 99 96 95 101 103 97 98
290 203 267 243 260 268 252 195 186 169 133 150 295 310 360 12 116 118 156 185 172 174 192 197 197 201 197 200 185 181 182 184 178 166 166 176 168 134 128 152 158 168 160 150 131 125 125 128 116 104 102 105 109 104
205 220 226 267 312 108 153 174 51 80 82 113 177 172 117 16 344 57 36 172 200 214 220 218 224 199 195 207 198 191 183 189 202 201 196 179 188 196 204 187 197 199 213 205 205 199 185 171 157 151 130 126 117 123
284 271 272 285 234 203 209 151 138 121 146 153 148 136 145 226 307 354 43 10 263 228 235 227 220 221 231 220 195 201 198 185 173 167 167 194 213 222 220 212 203 221 215 210 209 195 188 174 167 175 171 172 153 145